Overview Statistics Trail Chart Weather Telemetry Raw packets
 

This is the latest recevied weather packets stored in our database for station/object AB4BJ-10. If no packets are shown the sender has not sent any weather packets the latest 10 day(s).

<< 48 49 50 51 52 53 54 >>
Time Temp. Humidity Pressure Rain* Wind** Luminosity Snow
1788288218 33.33° C 55% 1015.3 hPa 0 mm - - -
1788287918 34.44° C 54% 1015.3 hPa 0 mm - - -
1788287617 33.89° C 54% 1015.3 hPa 0 mm - - -
1788287317 33.89° C 57% 1015.3 hPa 0 mm - - -
1788286717 32.78° C 58% 1015.4 hPa 0 mm - - -
1788286416 33.33° C 58% 1015.5 hPa 0 mm - - -
1788285815 32.78° C 59% 1015.6 hPa 0 mm - - -
1788285215 33.33° C 60% 1015.7 hPa 0 mm - - -
1788284915 33.33° C 60% 1015.7 hPa 0 mm - - -
1788284614 32.78° C 58% 1015.7 hPa 0 mm - - -
1788284317 32.78° C 61% 1015.8 hPa 0 mm - - -
1788284014 32.22° C 58% 1015.9 hPa 0 mm - - -
1788283713 32.78° C 58% 1015.9 hPa 0 mm - - -
1788283413 32.78° C 61% 1016 hPa 0 mm - - -
1788283113 32.22° C 60% 1016.2 hPa 0 mm - - -
1788282812 32.22° C 63% 1016.1 hPa 0 mm - - -
1788282512 31.67° C 65% 1016.2 hPa 0 mm - - -
1788282212 31.67° C 63% 1016.3 hPa 0 mm - - -
1788281611 31.11° C 66% 1016.4 hPa 0 mm - - -
1788281313 31.11° C 66% 1016.4 hPa 0 mm - - -
1788281011 30.56° C 70% 1016.5 hPa 0 mm - - -
1788280732 30.56° C 70% 1016.5 hPa 0 mm - - -
1788280410 30° C 71% 1016.6 hPa 0 mm - - -
1788280110 30° C 72% 1016.6 hPa 0 mm - - -
1788280022 30° C 72% 1016.7 hPa 0 mm - - -

* Rain latest hour (hover to see other rain measurements)
** Current wind speed in m/s (hover to see current wind gust speed)